ATLAS 5 CENTAUR DEB, 44676

Orbit data source: Space-Track

ATLAS 5 CENTAUR DEB, 44676 is space debris in HEO originally from a launch on Wed, 17 Oct 2018 UTC launched from the Air Force Eastern Test Range (AFETR). Debris objects in space refer to the collection of defunct objects orbiting the Earth. Examples of debris include non-operational satellites, rocket bodies, and fragments generated from explosions, collisions, or faulty payload assembly.

Loading next visibility...
ATLAS 5 CENTAUR DEB details
Identifier
44676, 2018-079AN
Orbit
HEO
Last TLE update1 day ago
Origin
Flag of USULA (US)
ManufacturerULA Decatur
MissionSpacecraft
Bus & MotorUnknown
MassUnknown
Launch date (UTC)
2018-10-17 (6 years ago)
Launch vehicleUnknown
Launch site
Air Force Eastern Test Range (AFETR)
Object type
Payload
Rocket body
Debris
Shape & HBRUnknown
Radar Cross SectionRCS unknown

Expand to show TLE details & history

TLE from 1 day ago
0 ATLAS 5 CENTAUR DEB
1 44676U 18079AN  24360.14536264 -.00000133  00000-0  00000-0 0  9996
2 44676  13.1154  72.3546 4735696 237.0843  68.2999  1.82848129 37026
Epoch: 2024-12-25T03:29Z
Definitive object data (Epoch: 2024-12-25T03:29:19.332Z)
Latitude0.00002°
Longitude-74.15559°
Altitude23,150.914 km
Speed3.59 km/s
True Right ascension04h 49m 16s
True Declination0° 00' 00"
Sunlit
Object was in daylight at TLE epoch
Visualization TLE readout
Latitude12.9357°
Longitude5.51603°
Altitude32,510.33 km
Speed2.528 km/s
Apparent Right ascension09h 59m 16s
Apparent Declination7° 55' 59"
Sunlit
Object is in daylight
Visualization observer readout
Local Sidereal Time11:07:29
Azimuth210.068° SW
Elevation54.568°
Doppler factor1
Orbital elements
Apogee altitude35,252.346 km
Perigee altitude8,494.287 km
Semi-major axis28,251.454 km
Eccentricity0.4735696
Inclination13.1154°
RAAN72.3546°
Arg. of periapsis237.0843°
True anomaly122.84908°
Mean anomaly68.2999°
Eccentric anomaly95.3167°
Mean motion0.45707 °/min
BSTARUnknown
Orbital period787.63 mins
Loading maneuver chart data...

ATLAS 5 CENTAUR DEB Visibility forecast

Observer location: undefined°, undefined

Span
Click to sort rows by Start time (UTC) header in descending order
Start Az.
Max El. time (UTC)
Max El. Az.
Max El.
End time (UTC)
End Az.
246 mins2024-12-26 11:46:04.965Z210.052° SW2024-12-26 11:46:04.965Z210.052° SW39.167°2024-12-26 15:52:04.965Z130.734° SE
280 mins2024-12-27 07:06:04.965Z236.989° WSW2024-12-27 10:33:04.965Z237.534° WSW30.697°2024-12-27 11:46:04.965Z243.837° WSW
|